When you browse on this site, cookies collect data to enhance your experience and personalize the content and advertising you see.
Visit our Privacy Policy to learn more. By continuing to use the site, you agree to this use of cookies and data.
  • In Schweiz
  • Länderverzeichnis
  • Für 7 Tage
  • Wassertemperatur
  • Wetterkarte
  • Widgets
  • user-avatar
    Anmelden

    Stündliche Wetter Da Nang

    Heute, 15 September, Sonntag

    Zeit Temperatur Niederschläge Wind Luftdruck Luftfeuchtigkeit
    00:00 +26°C° 0.1 mm 1 m/S 755 mmHg 96%
    01:00 +25°C° 0 mm 2 m/S 755 mmHg 96%
    02:00 +25°C° 0 mm 2 m/S 755 mmHg 96%
    03:00 +25°C° 0 mm 2 m/S 755 mmHg 96%
    04:00 +25°C° 0 mm 2 m/S 754 mmHg 96%
    05:00 +25°C° 0 mm 2 m/S 755 mmHg 95%
    06:00 +26°C° 0 mm 2 m/S 755 mmHg 93%
    07:00 +27°C° 0 mm 1 m/S 755 mmHg 91%
    08:00 +29°C° 0 mm 1 m/S 755 mmHg 81%
    09:00 +31°C° 0 mm 1 m/S 756 mmHg 72%
    10:00 +33°C° 0 mm 1 m/S 756 mmHg 62%
    11:00 +34°C° 0.2 mm 2 m/S 755 mmHg 67%
    12:00 +32°C° 0.2 mm 2 m/S 754 mmHg 72%
    13:00 +33°C° 0.2 mm 3 m/S 753 mmHg 77%
    14:00 +31°C° 0.3 mm 3 m/S 753 mmHg 79%
    15:00 +31°C° 0.3 mm 2 m/S 753 mmHg 81%
    16:00 +30°C° 0.3 mm 2 m/S 753 mmHg 83%
    17:00 +29°C° 0.1 mm 2 m/S 753 mmHg 86%
    18:00 +28°C° 0.1 mm 1 m/S 754 mmHg 89%
    19:00 +25°C° 0.1 mm 0 m/S 754 mmHg 91%
    20:00 +27°C° 0 mm 1 m/S 755 mmHg 92%
    21:00 +27°C° 0 mm 1 m/S 755 mmHg 93%
    22:00 +26°C° 0 mm 1 m/S 756 mmHg 93%
    23:00 +26°C° 0 mm 1 m/S 755 mmHg 94%

    Morgen, 16 September, Montag

    Zeit Temperatur Niederschläge Wind Luftdruck Luftfeuchtigkeit
    00:00 +26°C° 0 mm 1 m/S 755 mmHg 94%
    01:00 +26°C° 0 mm 1 m/S 755 mmHg 95%
    02:00 +26°C° 0 mm 1 m/S 755 mmHg 95%
    03:00 +25°C° 0 mm 1 m/S 754 mmHg 95%
    04:00 +25°C° 0 mm 1 m/S 754 mmHg 95%
    05:00 +26°C° 0 mm 1 m/S 754 mmHg 93%
    06:00 +27°C° 0 mm 1 m/S 755 mmHg 92%
    07:00 +27°C° 0 mm 1 m/S 755 mmHg 90%
    08:00 +29°C° 0 mm 1 m/S 755 mmHg 81%
    09:00 +31°C° 0 mm 1 m/S 755 mmHg 72%
    10:00 +33°C° 0 mm 1 m/S 755 mmHg 62%
    11:00 +34°C° 0.2 mm 2 m/S 754 mmHg 67%
    12:00 +32°C° 0.2 mm 2 m/S 754 mmHg 72%
    13:00 +32°C° 0.2 mm 2 m/S 753 mmHg 77%
    14:00 +32°C° 0.1 mm 2 m/S 753 mmHg 76%
    15:00 +32°C° 0.1 mm 2 m/S 753 mmHg 76%
    16:00 +31°C° 0.1 mm 2 m/S 752 mmHg 76%
    17:00 +30°C° 0 mm 2 m/S 753 mmHg 81%
    18:00 +28°C° 0 mm 1 m/S 753 mmHg 87%
    19:00 +27°C° 0 mm 1 m/S 754 mmHg 93%
    20:00 +26°C° 0 mm 1 m/S 754 mmHg 92%
    21:00 +26°C° 0 mm 1 m/S 755 mmHg 92%
    22:00 +26°C° 0 mm 1 m/S 755 mmHg 92%
    23:00 +26°C° 0 mm 1 m/S 755 mmHg 92%

    übermorgen, 17 September, Dienstag

    Zeit Temperatur Niederschläge Wind Luftdruck Luftfeuchtigkeit
    00:00 +26°C° 0 mm 1 m/S 755 mmHg 92%
    01:00 +25°C° 0 mm 1 m/S 754 mmHg 92%
    02:00 +25°C° 0 mm 1 m/S 754 mmHg 93%
    03:00 +25°C° 0 mm 1 m/S 754 mmHg 93%
    04:00 +25°C° 0 mm 1 m/S 754 mmHg 94%
    05:00 +26°C° 0 mm 1 m/S 754 mmHg 91%
    06:00 +27°C° 0 mm 1 m/S 755 mmHg 89%
    07:00 +28°C° 0 mm 1 m/S 755 mmHg 86%
    08:00 +30°C° 0 mm 1 m/S 755 mmHg 77%
    09:00 +32°C° 0 mm 1 m/S 755 mmHg 68%
    10:00 +34°C° 0 mm 1 m/S 756 mmHg 59%
    11:00 +35°C° 0 mm 2 m/S 755 mmHg 60%
    12:00 +35°C° 0 mm 2 m/S 754 mmHg 61%
    13:00 +35°C° 0 mm 3 m/S 753 mmHg 62%
    14:00 +34°C° 0 mm 3 m/S 753 mmHg 66%
    15:00 +33°C° 0 mm 3 m/S 753 mmHg 69%
    16:00 +31°C° 0 mm 3 m/S 753 mmHg 73%
    17:00 +30°C° 0 mm 2 m/S 754 mmHg 80%
    18:00 +28°C° 0 mm 1 m/S 754 mmHg 86%
    19:00 +25°C° 0 mm 0 m/S 755 mmHg 93%
    20:00 +27°C° 0 mm 1 m/S 755 mmHg 94%
    21:00 +26°C° 0 mm 1 m/S 756 mmHg 94%
    22:00 +26°C° 0 mm 1 m/S 756 mmHg 95%
    23:00 +26°C° 0 mm 1 m/S 756 mmHg 95%

    18 September, Mittwoch

    Zeit Temperatur Niederschläge Wind Luftdruck Luftfeuchtigkeit
    00:00 +26°C° 0 mm 1 m/S 755 mmHg 95%
    01:00 +26°C° 0 mm 2 m/S 755 mmHg 95%
    02:00 +26°C° 0 mm 2 m/S 755 mmHg 95%
    03:00 +26°C° 0 mm 2 m/S 755 mmHg 95%
    04:00 +26°C° 0 mm 2 m/S 754 mmHg 95%
    05:00 +26°C° 0.1 mm 1 m/S 755 mmHg 92%
    06:00 +27°C° 0.1 mm 1 m/S 755 mmHg 90%
    07:00 +27°C° 0.1 mm 1 m/S 756 mmHg 87%
    08:00 +29°C° 0.2 mm 1 m/S 756 mmHg 81%
    09:00 +31°C° 0.2 mm 2 m/S 756 mmHg 74%
    10:00 +34°C° 0.2 mm 2 m/S 756 mmHg 68%
    11:00 +32°C° 1.1 mm 2 m/S 755 mmHg 76%
    12:00 +31°C° 1.1 mm 2 m/S 755 mmHg 83%
    13:00 +30°C° 1.1 mm 3 m/S 754 mmHg 91%
    14:00 +29°C° 0.3 mm 2 m/S 754 mmHg 92%
    15:00 +28°C° 0.3 mm 1 m/S 754 mmHg 94%
    16:00 +28°C° 0.3 mm 1 m/S 754 mmHg 95%
    17:00 +28°C° 0.3 mm 1 m/S 754 mmHg 95%
    18:00 +27°C° 0.3 mm 1 m/S 755 mmHg 95%
    19:00 +27°C° 0.3 mm 1 m/S 755 mmHg 95%
    20:00 +27°C° 0.5 mm 1 m/S 756 mmHg 95%
    21:00 +27°C° 0.5 mm 1 m/S 756 mmHg 95%
    22:00 +26°C° 0.5 mm 1 m/S 757 mmHg 95%
    23:00 +26°C° 0 mm 1 m/S 756 mmHg 95%

    19 September, Donnerstag

    Zeit Temperatur Niederschläge Wind Luftdruck Luftfeuchtigkeit
    00:00 +26°C° 0 mm 1 m/S 756 mmHg 95%
    01:00 +26°C° 0 mm 1 m/S 755 mmHg 95%
    02:00 +25°C° 0 mm 1 m/S 755 mmHg 95%
    03:00 +25°C° 0 mm 1 m/S 755 mmHg 95%
    04:00 +25°C° 0 mm 1 m/S 755 mmHg 94%
    05:00 +26°C° 0 mm 1 m/S 756 mmHg 93%
    06:00 +26°C° 0 mm 1 m/S 756 mmHg 91%
    07:00 +27°C° 0 mm 1 m/S 756 mmHg 90%
    08:00 +29°C° 0 mm 1 m/S 756 mmHg 80%
    09:00 +31°C° 0 mm 1 m/S 757 mmHg 71%
    10:00 +33°C° 0 mm 1 m/S 757 mmHg 61%
    11:00 +34°C° 0.1 mm 2 m/S 756 mmHg 63%
    12:00 +34°C° 0.1 mm 2 m/S 755 mmHg 65%
    13:00 +34°C° 0.1 mm 3 m/S 755 mmHg 66%
    14:00 +33°C° 0.6 mm 3 m/S 755 mmHg 73%
    15:00 +33°C° 0.6 mm 3 m/S 754 mmHg 79%
    16:00 +31°C° 0.6 mm 3 m/S 754 mmHg 86%
    17:00 +29°C° 0.8 mm 2 m/S 755 mmHg 88%
    18:00 +28°C° 0.8 mm 1 m/S 755 mmHg 91%
    19:00 +27°C° 0.8 mm 1 m/S 756 mmHg 93%
    20:00 +27°C° 0.2 mm 1 m/S 756 mmHg 93%
    21:00 +27°C° 0.2 mm 1 m/S 757 mmHg 94%
    22:00 +26°C° 0.2 mm 1 m/S 757 mmHg 94%
    23:00 +26°C° 0.3 mm 1 m/S 757 mmHg 94%

    20 September, Freitag

    Zeit Temperatur Niederschläge Wind Luftdruck Luftfeuchtigkeit
    00:00 +26°C° 0.3 mm 1 m/S 756 mmHg 94%
    01:00 +26°C° 0.3 mm 1 m/S 756 mmHg 94%
    02:00 +26°C° 0.1 mm 1 m/S 756 mmHg 94%
    03:00 +26°C° 0.1 mm 1 m/S 755 mmHg 94%
    04:00 +26°C° 0.1 mm 1 m/S 755 mmHg 94%
    05:00 +26°C° 0 mm 1 m/S 755 mmHg 93%
    06:00 +27°C° 0 mm 1 m/S 756 mmHg 91%
    07:00 +27°C° 0 mm 1 m/S 756 mmHg 90%
    08:00 +29°C° 0.2 mm 1 m/S 756 mmHg 82%
    09:00 +31°C° 0.2 mm 1 m/S 756 mmHg 75%
    10:00 +33°C° 0.2 mm 1 m/S 756 mmHg 67%
    11:00 +32°C° 0.9 mm 1 m/S 756 mmHg 73%
    12:00 +32°C° 0.9 mm 1 m/S 755 mmHg 79%
    13:00 +31°C° 0.9 mm 2 m/S 755 mmHg 85%
    14:00 +31°C° 0.7 mm 2 m/S 754 mmHg 85%
    15:00 +31°C° 0.7 mm 2 m/S 754 mmHg 84%
    16:00 +30°C° 0.7 mm 2 m/S 754 mmHg 83%
    17:00 +29°C° 0.2 mm 1 m/S 755 mmHg 86%
    18:00 +28°C° 0.2 mm 1 m/S 755 mmHg 89%
    19:00 +25°C° 0.2 mm 0 m/S 756 mmHg 92%
    20:00 +24°C° 0 mm 0 m/S 756 mmHg 93%
    21:00 +26°C° 0 mm 1 m/S 757 mmHg 93%
    22:00 +26°C° 0 mm 1 m/S 757 mmHg 93%
    23:00 +26°C° 0 mm 1 m/S 757 mmHg 94%
    Mehr zeigen